When you browse on this site, cookies collect data to enhance your experience and personalize the content and advertising you see.
Visit our Privacy Policy to learn more. By continuing to use the site, you agree to this use of cookies and data.
  • In Deutschland
  • Länderverzeichnis
  • Für 7 Tage
  • Wassertemperatur
  • Wetterkarte
  • Widgets
  • user-avatar
    Anmelden

    Stündliche Wetter San Juan

    Heute, 12 Dezember, Donnerstag

    Zeit Temperatur Niederschläge Wind Luftdruck Luftfeuchtigkeit
    00:00 +31°C° 0 mm 8 m/S 704 mmHg 31%
    01:00 +29°C° 0 mm 10 m/S 705 mmHg 30%
    02:00 +28°C° 0 mm 10 m/S 705 mmHg 26%
    03:00 +26°C° 0 mm 10 m/S 705 mmHg 23%
    04:00 +24°C° 0 mm 10 m/S 705 mmHg 19%
    05:00 +23°C° 0 mm 10 m/S 706 mmHg 18%
    06:00 +23°C° 0 mm 9 m/S 706 mmHg 18%
    07:00 +23°C° 0 mm 9 m/S 707 mmHg 17%
    08:00 +24°C° 0 mm 9 m/S 707 mmHg 16%
    09:00 +26°C° 0 mm 8 m/S 706 mmHg 15%
    10:00 +26°C° 0 mm 8 m/S 706 mmHg 14%
    11:00 +27°C° 0 mm 7 m/S 706 mmHg 13%
    12:00 +28°C° 0 mm 7 m/S 705 mmHg 13%
    13:00 +29°C° 0 mm 6 m/S 704 mmHg 13%
    14:00 +29°C° 0 mm 6 m/S 704 mmHg 13%
    15:00 +29°C° 0 mm 5 m/S 703 mmHg 14%
    16:00 +30°C° 0 mm 4 m/S 703 mmHg 14%
    17:00 +29°C° 0 mm 4 m/S 703 mmHg 14%
    18:00 +28°C° 0 mm 3 m/S 704 mmHg 15%
    19:00 +27°C° 0 mm 3 m/S 704 mmHg 16%
    20:00 +26°C° 0 mm 3 m/S 705 mmHg 17%
    21:00 +26°C° 0 mm 2 m/S 705 mmHg 18%
    22:00 +25°C° 0 mm 2 m/S 705 mmHg 19%
    23:00 +24°C° 0 mm 1 m/S 705 mmHg 20%

    Morgen, 13 Dezember, Freitag

    Zeit Temperatur Niederschläge Wind Luftdruck Luftfeuchtigkeit
    00:00 +24°C° 0 mm 1 m/S 704 mmHg 21%
    01:00 +23°C° 0 mm 1 m/S 703 mmHg 22%
    02:00 +22°C° 0 mm 1 m/S 703 mmHg 23%
    03:00 +22°C° 0 mm 1 m/S 703 mmHg 23%
    04:00 +21°C° 0 mm 1 m/S 702 mmHg 24%
    05:00 +23°C° 0 mm 2 m/S 703 mmHg 22%
    06:00 +25°C° 0 mm 2 m/S 703 mmHg 20%
    07:00 +26°C° 0 mm 2 m/S 704 mmHg 18%
    08:00 +28°C° 0 mm 2 m/S 703 mmHg 17%
    09:00 +29°C° 0 mm 2 m/S 703 mmHg 17%
    10:00 +31°C° 0 mm 2 m/S 703 mmHg 16%
    11:00 +33°C° 0 mm 3 m/S 702 mmHg 15%
    12:00 +34°C° 0 mm 3 m/S 702 mmHg 14%
    13:00 +36°C° 0 mm 3 m/S 702 mmHg 13%
    14:00 +36°C° 0 mm 3 m/S 701 mmHg 13%
    15:00 +36°C° 0 mm 3 m/S 701 mmHg 13%
    16:00 +37°C° 0 mm 3 m/S 700 mmHg 13%
    17:00 +35°C° 0 mm 3 m/S 701 mmHg 14%
    18:00 +34°C° 0 mm 3 m/S 701 mmHg 15%
    19:00 +33°C° 0 mm 3 m/S 702 mmHg 16%
    20:00 +31°C° 0 mm 2 m/S 702 mmHg 19%
    21:00 +30°C° 0 mm 2 m/S 702 mmHg 21%
    22:00 +29°C° 0 mm 1 m/S 702 mmHg 24%
    23:00 +28°C° 0 mm 1 m/S 702 mmHg 28%

    übermorgen, 14 Dezember, Samstag

    Zeit Temperatur Niederschläge Wind Luftdruck Luftfeuchtigkeit
    00:00 +27°C° 0 mm 1 m/S 702 mmHg 32%
    01:00 +27°C° 0 mm 1 m/S 702 mmHg 36%
    02:00 +26°C° 0 mm 2 m/S 702 mmHg 36%
    03:00 +26°C° 0 mm 2 m/S 702 mmHg 37%
    04:00 +26°C° 0 mm 2 m/S 702 mmHg 37%
    05:00 +26°C° 0 mm 5 m/S 702 mmHg 31%
    06:00 +27°C° 0 mm 7 m/S 703 mmHg 25%
    07:00 +27°C° 0 mm 9 m/S 704 mmHg 20%
    08:00 +28°C° 0 mm 9 m/S 703 mmHg 20%
    09:00 +31°C° 0 mm 9 m/S 703 mmHg 21%
    10:00 +32°C° 0 mm 9 m/S 703 mmHg 22%
    11:00 +33°C° 0 mm 8 m/S 702 mmHg 21%
    12:00 +34°C° 0 mm 8 m/S 702 mmHg 20%
    13:00 +35°C° 0 mm 7 m/S 701 mmHg 20%
    14:00 +35°C° 0 mm 7 m/S 701 mmHg 20%
    15:00 +35°C° 0 mm 7 m/S 701 mmHg 19%
    16:00 +36°C° 0 mm 7 m/S 700 mmHg 19%
    17:00 +34°C° 0 mm 6 m/S 701 mmHg 21%
    18:00 +33°C° 0 mm 6 m/S 701 mmHg 23%
    19:00 +32°C° 0 mm 6 m/S 702 mmHg 24%
    20:00 +32°C° 0 mm 6 m/S 703 mmHg 25%
    21:00 +30°C° 0 mm 6 m/S 703 mmHg 26%
    22:00 +29°C° 0 mm 6 m/S 704 mmHg 28%
    23:00 +28°C° 0 mm 8 m/S 704 mmHg 31%

    15 Dezember, Sonntag

    Zeit Temperatur Niederschläge Wind Luftdruck Luftfeuchtigkeit
    00:00 +26°C° 0 mm 10 m/S 704 mmHg 35%
    01:00 +24°C° 0 mm 12 m/S 705 mmHg 39%
    02:00 +23°C° 0 mm 10 m/S 705 mmHg 43%
    03:00 +22°C° 0 mm 9 m/S 705 mmHg 47%
    04:00 +21°C° 0 mm 7 m/S 705 mmHg 50%
    05:00 +22°C° 0 mm 7 m/S 706 mmHg 46%
    06:00 +23°C° 0 mm 7 m/S 706 mmHg 41%
    07:00 +26°C° 0 mm 7 m/S 707 mmHg 37%
    08:00 +27°C° 0 mm 7 m/S 707 mmHg 33%
    09:00 +28°C° 0 mm 7 m/S 707 mmHg 30%
    10:00 +29°C° 0 mm 7 m/S 706 mmHg 27%
    11:00 +30°C° 0 mm 7 m/S 706 mmHg 25%
    12:00 +32°C° 0 mm 6 m/S 705 mmHg 23%
    13:00 +33°C° 0 mm 5 m/S 705 mmHg 21%
    14:00 +33°C° 0 mm 5 m/S 704 mmHg 20%
    15:00 +33°C° 0 mm 5 m/S 703 mmHg 19%
    16:00 +33°C° 0 mm 5 m/S 703 mmHg 18%
    17:00 +32°C° 0 mm 4 m/S 703 mmHg 19%
    18:00 +30°C° 0 mm 3 m/S 703 mmHg 20%
    19:00 +29°C° 0 mm 3 m/S 704 mmHg 21%
    20:00 +29°C° 0 mm 2 m/S 704 mmHg 22%
    21:00 +28°C° 0 mm 2 m/S 704 mmHg 22%
    22:00 +28°C° 0 mm 2 m/S 704 mmHg 23%
    23:00 +27°C° 0 mm 3 m/S 704 mmHg 23%

    16 Dezember, Montag

    Zeit Temperatur Niederschläge Wind Luftdruck Luftfeuchtigkeit
    00:00 +27°C° 0 mm 4 m/S 703 mmHg 24%
    01:00 +26°C° 0 mm 5 m/S 703 mmHg 24%
    02:00 +25°C° 0 mm 4 m/S 703 mmHg 25%
    03:00 +25°C° 0 mm 4 m/S 703 mmHg 26%
    04:00 +23°C° 0 mm 4 m/S 703 mmHg 28%
    05:00 +25°C° 0 mm 5 m/S 703 mmHg 26%
    06:00 +27°C° 0 mm 5 m/S 704 mmHg 24%
    07:00 +28°C° 0 mm 6 m/S 704 mmHg 22%
    08:00 +29°C° 0 mm 5 m/S 704 mmHg 21%
    09:00 +30°C° 0 mm 5 m/S 704 mmHg 20%
    10:00 +33°C° 0 mm 4 m/S 704 mmHg 18%
    11:00 +33°C° 0 mm 4 m/S 703 mmHg 18%
    12:00 +34°C° 0 mm 3 m/S 702 mmHg 18%
    13:00 +35°C° 0 mm 2 m/S 701 mmHg 19%
    14:00 +35°C° 0 mm 2 m/S 701 mmHg 18%
    15:00 +36°C° 0 mm 3 m/S 701 mmHg 18%
    16:00 +36°C° 0 mm 3 m/S 700 mmHg 17%
    17:00 +35°C° 0 mm 3 m/S 700 mmHg 18%
    18:00 +34°C° 0 mm 3 m/S 701 mmHg 19%
    19:00 +33°C° 0 mm 3 m/S 701 mmHg 20%
    20:00 +33°C° 0 mm 4 m/S 701 mmHg 25%
    21:00 +32°C° 0 mm 6 m/S 702 mmHg 29%
    22:00 +30°C° 0 mm 7 m/S 702 mmHg 34%
    23:00 +29°C° 0 mm 7 m/S 701 mmHg 36%

    17 Dezember, Dienstag

    Zeit Temperatur Niederschläge Wind Luftdruck Luftfeuchtigkeit
    00:00 +29°C° 0 mm 7 m/S 701 mmHg 38%
    01:00 +28°C° 0 mm 6 m/S 701 mmHg 40%
    02:00 +27°C° 0 mm 5 m/S 700 mmHg 42%
    03:00 +27°C° 0 mm 4 m/S 700 mmHg 44%
    04:00 +26°C° 0 mm 3 m/S 700 mmHg 46%
    05:00 +27°C° 0 mm 3 m/S 700 mmHg 43%
    06:00 +29°C° 0 mm 3 m/S 701 mmHg 40%
    07:00 +30°C° 0 mm 3 m/S 701 mmHg 36%
    08:00 +31°C° 0 mm 3 m/S 701 mmHg 33%
    09:00 +34°C° 0 mm 3 m/S 701 mmHg 30%
    10:00 +35°C° 0 mm 3 m/S 701 mmHg 27%
    11:00 +36°C° 0 mm 3 m/S 700 mmHg 25%
    12:00 +37°C° 0 mm 3 m/S 699 mmHg 23%
    13:00 +38°C° 0 mm 3 m/S 699 mmHg 21%
    14:00 +38°C° 0 mm 3 m/S 698 mmHg 20%
    15:00 +40°C° 0 mm 4 m/S 698 mmHg 20%
    16:00 +40°C° 0 mm 5 m/S 698 mmHg 19%
    17:00 +38°C° 0 mm 4 m/S 698 mmHg 21%
    18:00 +36°C° 0 mm 3 m/S 699 mmHg 23%
    19:00 +35°C° 0 mm 2 m/S 699 mmHg 26%
    20:00 +34°C° 0.1 mm 4 m/S 699 mmHg 28%
    21:00 +34°C° 0.1 mm 5 m/S 700 mmHg 31%
    22:00 +33°C° 0.1 mm 7 m/S 700 mmHg 34%
    23:00 +32°C° 0 mm 7 m/S 700 mmHg 35%
    Mehr zeigen